Location: Heppenheim
(49.6410°N, 8.6370°E)
Time: 10:16:41
(UTC+01:00)

ISS - Pass Details

Date: 26 February 2019
Orbit: 406 x 411 km, 51.6° (Epoch: 20 March)

Event Time Altitude Azimuth Distance (km) Brightness Sun altitude
Exits shadow 05:33:31 11° 188° (S) 1,427 -1.2 -17.2°
Maximum altitude 05:35:49 19° 141° (SE) 1,028 -1.4 -16.8°
Drops below altitude 10° 05:38:16 10° 93° (E) 1,467 0.3 -16.4°
Sets 05:40:43 0° 75° (ENE) 2,333 1.8 -16.0°
